Mora, MN

12:02 AM CDT on July 26, 2017 (GMT -0500)
Mora Municipal

Weather History for KJMR - November, 2012

Change the Weather History Date:

Saturday, November 24, 2012

  Actual Average Record
Temperature  
Mean Temperature 14 °F -  
Max Temperature 24 °F 33 °F 53 °F (1984)
Min Temperature 3 °F 12 °F -16 °F (1985)
Degree Days  
Heating Degree Days 52    
Moisture  
Dew Point 10 °F    
Average Humidity 76    
Maximum Humidity 92    
Minimum Humidity 68    
Precipitation  
Precipitation 0.00 in - - ()
Sea Level Pressure  
Sea Level Pressure 30.08 in    
Wind  
Wind Speed 3 mph (SSE)    
Max Wind Speed 8 mph    
Max Gust Speed -    
Visibility 10 miles    
Events      
Averages and records for this station are not official NWS values.
T = Trace of Precipitation, MM = Missing Value Source: NWS Daily Summary

Daily Weather History Graph

Daily Weather History Graph

Search for Another Location

Airport or City:

Trip Planner

Search our weather history database for the weather conditions in past years. The results will help you decide how hot, cold, wet, or windy it might be!

Date:

Astronomy

Nov. 24, 2012 Rise Set
Actual Time 7:26 AM CST 4:33 PM CST
Civil Twilight 6:52 AM CST 5:06 PM CST
Nautical Twilight 6:15 AM CST 5:43 PM CST
Astronomical Twilight 5:40 AM CST 6:19 PM CST
Moon 2:26 PM CST (11/24) 3:34 AM CST (11/24)
Length of Visible Light 10h 13m
Length of Day
9h 07m
Waxing Gibbous, 87% of the Moon is Illuminated
Nov 24
Waxing Gibbous
Nov 28
Full
Dec 6
Last Quarter
Dec 13
New
Dec 19
First Quarter

Hourly Weather History & Observations

Time (CST) Temp. Windchill Dew Point Humidity Pressure Visibility Wind Dir Wind Speed Gust Speed Precip Events Conditions
12:01 AM 10.4 °F 4.0 °F 8.6 °F 92% 30.34 in 10.0 mi WNW 3.5 mph - N/A   Clear
12:21 AM 12.2 °F 2.9 °F 8.6 °F 85% 30.34 in 10.0 mi NW 5.8 mph - N/A   Clear
12:41 AM 12.2 °F 4.3 °F 8.6 °F 85% 30.33 in 10.0 mi NNW 4.6 mph - N/A   Clear
1:01 AM 12.2 °F 4.3 °F 8.6 °F 85% 30.33 in 10.0 mi NW 4.6 mph - N/A   Clear
1:21 AM 12.2 °F 4.3 °F 8.6 °F 85% 30.32 in 10.0 mi West 4.6 mph - N/A   Clear
1:41 AM 12.2 °F 6.1 °F 8.6 °F 85% 30.32 in 10.0 mi West 3.5 mph - N/A   Clear
2:21 AM 10.4 °F - 5.0 °F 79% 30.31 in 10.0 mi Calm Calm - N/A   Clear
2:41 AM 8.6 °F 2.0 °F 5.0 °F 85% 30.32 in 10.0 mi WSW 3.5 mph - N/A   Clear
3:01 AM 8.6 °F 2.0 °F 5.0 °F 85% 30.31 in 10.0 mi WSW 3.5 mph - N/A   Clear
3:21 AM 8.6 °F - 5.0 °F 85% 30.31 in 10.0 mi Calm Calm - N/A   Clear
4:01 AM 8.6 °F - 5.0 °F 85% 30.29 in 10.0 mi Calm Calm - N/A   Clear
4:21 AM 6.8 °F - 3.2 °F 85% 30.28 in 10.0 mi Calm Calm - N/A   Clear
4:41 AM 5.0 °F - 1.4 °F 85% 30.27 in 10.0 mi Calm Calm - N/A   Clear
5:01 AM 5.0 °F - 1.4 °F 85% 30.29 in 10.0 mi Calm Calm - N/A   Clear
5:21 AM 6.8 °F - 3.2 °F 85% 30.29 in 10.0 mi Calm Calm - N/A   Clear
5:41 AM 6.8 °F - 3.2 °F 85% 30.29 in 10.0 mi Calm Calm - N/A   Clear
6:01 AM 5.0 °F - 1.4 °F 85% 30.28 in 10.0 mi Calm Calm - N/A   Clear
6:21 AM 5.0 °F - 1.4 °F 85% 30.28 in 10.0 mi Calm Calm - N/A   Clear
6:41 AM 3.2 °F - -0.4 °F 85% 30.27 in 10.0 mi Calm Calm - N/A   Clear
7:01 AM 3.2 °F - -0.4 °F 85% 30.26 in 10.0 mi Calm Calm - N/A   Clear
7:21 AM 5.0 °F - 1.4 °F 85% 30.25 in 10.0 mi Calm Calm - N/A   Clear
7:41 AM 5.0 °F - 1.4 °F 85% 30.24 in 10.0 mi Calm Calm - N/A   Clear
8:01 AM 5.0 °F - 1.4 °F 85% 30.24 in 10.0 mi Calm Calm - N/A   Clear
8:21 AM 5.0 °F - 1.4 °F 85% 30.23 in 10.0 mi Calm Calm - N/A   Clear
8:41 AM 8.6 °F - 3.2 °F 79% 30.23 in 10.0 mi Calm Calm - N/A   Clear
9:01 AM 12.2 °F - 8.6 °F 85% 30.22 in 10.0 mi Calm Calm - N/A   Clear
9:21 AM 12.2 °F - 8.6 °F 85% 30.21 in 10.0 mi Calm Calm - N/A   Clear
9:41 AM 14.0 °F 6.5 °F 10.4 °F 86% 30.21 in 10.0 mi SE 4.6 mph - N/A   Clear
10:01 AM 14.0 °F 5.1 °F 10.4 °F 86% 30.19 in 10.0 mi SE 5.8 mph - N/A   Clear
10:21 AM 17.6 °F 12.3 °F 12.2 °F 79% 30.19 in 10.0 mi SSE 3.5 mph - N/A   Clear
10:41 AM 17.6 °F - 10.4 °F 73% 30.19 in 10.0 mi Calm Calm - N/A   Clear
11:01 AM 17.6 °F 8.2 °F 10.4 °F 73% 30.18 in 10.0 mi South 6.9 mph - N/A   Clear
11:21 AM 19.4 °F 14.3 °F 10.4 °F 68% 30.17 in 10.0 mi SSW 3.5 mph - N/A   Mostly Cloudy
11:41 AM 19.4 °F 9.5 °F 10.4 °F 68% 30.13 in 10.0 mi South 8.1 mph - N/A   Overcast
12:01 PM 19.4 °F 11.5 °F 10.4 °F 68% 30.11 in 10.0 mi South 5.8 mph - N/A   Overcast
12:21 PM 19.4 °F 10.4 °F 10.4 °F 68% 30.09 in 10.0 mi SSE 6.9 mph - N/A   Overcast
12:41 PM 19.4 °F 9.5 °F 12.2 °F 74% 30.08 in 10.0 mi South 8.1 mph - N/A   Overcast
1:01 PM 19.4 °F 12.8 °F 10.4 °F 68% 30.06 in 10.0 mi SSE 4.6 mph - N/A   Overcast
1:21 PM 19.4 °F 10.4 °F 10.4 °F 68% 30.04 in 10.0 mi South 6.9 mph - N/A   Overcast
1:41 PM 21.2 °F 14.9 °F 12.2 °F 68% 30.02 in 10.0 mi SSE 4.6 mph - N/A   Overcast
2:01 PM 21.2 °F 13.6 °F 12.2 °F 68% 30.02 in 10.0 mi SSE 5.8 mph - N/A   Overcast
2:21 PM 21.2 °F 13.6 °F 12.2 °F 68% 30.02 in 10.0 mi SSE 5.8 mph - N/A   Overcast
2:41 PM 21.2 °F 13.6 °F 12.2 °F 68% 29.99 in 10.0 mi SSE 5.8 mph - N/A   Overcast
3:01 PM 21.2 °F 14.9 °F 12.2 °F 68% 29.98 in 10.0 mi ESE 4.6 mph - N/A   Overcast
3:21 PM 21.2 °F 13.6 °F 12.2 °F 68% 29.98 in 10.0 mi SE 5.8 mph - N/A   Overcast
3:41 PM 21.2 °F 13.6 °F 12.2 °F 68% 29.97 in 10.0 mi SE 5.8 mph - N/A   Overcast
4:01 PM 21.2 °F 12.6 °F 14.0 °F 74% 29.95 in 10.0 mi ESE 6.9 mph - N/A   Overcast
4:21 PM 21.2 °F 13.6 °F 12.2 °F 68% 29.94 in 10.0 mi SE 5.8 mph - N/A   Overcast
4:41 PM 21.2 °F 14.9 °F 12.2 °F 68% 29.93 in 10.0 mi SE 4.6 mph - N/A   Overcast
5:01 PM 21.2 °F 11.7 °F 12.2 °F 68% 29.91 in 10.0 mi SE 8.1 mph - N/A   Overcast
5:21 PM 21.2 °F 12.6 °F 12.2 °F 68% 29.89 in 10.0 mi SE 6.9 mph - N/A   Overcast
5:41 PM 21.2 °F 13.6 °F 12.2 °F 68% 29.88 in 10.0 mi SSE 5.8 mph - N/A   Overcast
6:01 PM 21.2 °F 14.9 °F 12.2 °F 68% 29.86 in 10.0 mi SSE 4.6 mph - N/A   Overcast
6:21 PM 23.0 °F 15.8 °F 14.0 °F 68% 29.87 in 10.0 mi South 5.8 mph - N/A   Overcast
6:41 PM 23.0 °F 17.0 °F 14.0 °F 68% 29.87 in 10.0 mi South 4.6 mph - N/A   Mostly Cloudy
7:01 PM 24.8 °F 20.5 °F 15.8 °F 69% 29.87 in 10.0 mi South 3.5 mph - N/A   Overcast
7:21 PM 24.8 °F 20.5 °F 15.8 °F 69% 29.87 in 10.0 mi SSE 3.5 mph - N/A   Overcast
7:41 PM 24.8 °F - 15.8 °F 69% 29.86 in 10.0 mi Calm Calm - N/A   Mostly Cloudy
8:01 PM 24.8 °F - 15.8 °F 69% 29.86 in 10.0 mi Calm Calm - N/A   Overcast
8:21 PM 24.8 °F - 15.8 °F 69% 29.85 in 10.0 mi Calm Calm - N/A   Overcast
8:41 PM 24.8 °F - 15.8 °F 69% 29.83 in 10.0 mi Calm Calm - N/A   Overcast
9:01 PM 24.8 °F 20.5 °F 15.8 °F 69% 29.81 in 10.0 mi SE 3.5 mph - N/A   Overcast
9:21 PM 24.8 °F - 17.6 °F 74% 29.82 in 10.0 mi Calm Calm - N/A   Overcast
9:41 PM 24.8 °F - 17.6 °F 74% 29.82 in 10.0 mi Calm Calm - N/A   Overcast
10:01 PM 24.8 °F - 17.6 °F 74% 29.81 in 10.0 mi Calm Calm - N/A   Overcast
10:21 PM 24.8 °F - 17.6 °F 74% 29.80 in 10.0 mi Calm Calm - N/A   Overcast
10:41 PM 24.8 °F - 17.6 °F 74% 29.81 in 10.0 mi Calm Calm - N/A   Overcast
11:01 PM 24.8 °F - 17.6 °F 74% 29.81 in 10.0 mi Calm Calm - N/A   Overcast
11:21 PM 24.8 °F - 19.4 °F 80% 29.81 in 10.0 mi Calm Calm - N/A   Overcast
11:41 PM 24.8 °F - 19.4 °F 80% 29.81 in 10.0 mi Calm Calm - N/A   Overcast